Latest Weather Observations for Melbourne Airport

IDV60801

Issued at 1:35 pm EDT Saturday 25 October 2014 (issued every 30 minutes, with the page automatically refreshed every 10 minutes)

About weather observations | Map of weather stations | Latest weather observations for VIC | Other Formats
Station Details ID: 086282 Name: MELBOURNE AIRPORT Lat: -37.67 Lon: 144.83 Height: 113.4 m
Data from the previous 72 hours. | See also: Recent months at Melbourne Airport
Date/Time
EDT
Temp
°C
App
Temp
°C
Dew
Point
Rel
Hum
%
Delta-T
°C
Wind Press
QNH
hPa
Press
MSL
hPa
Rain
since 9 am
mm
Dir
 
Spd
km/h
Gust
km/h
Spd
kts
Gust
kts
25/01:30pm 17.8 15.5 10.3 61 4.0 S 13 19 7 10 1016.0 1016.0 0.0
25/01:00pm 16.9 15.2 9.9 63 3.7 SSW 9 15 5 8 1016.3 1016.3 0.0
25/12:30pm 17.2 14.9 10.5 64 3.6 S 13 17 7 9 1016.6 1016.6 0.0
25/12:00pm 16.5 14.2 10.3 67 3.3 S 13 19 7 10 1017.1 1017.1 0.0
25/11:30am 15.7 13.7 10.0 69 3.0 SSE 11 17 6 9 1017.3 1017.3 0.0
25/11:00am 15.7 13.2 9.8 68 3.1 S 13 17 7 9 1017.7 1017.7 0.0
25/10:30am 15.3 12.5 10.0 70 2.8 S 15 17 8 9 1017.8 1017.8 0.0
25/10:00am 15.1 12.7 10.1 72 2.6 S 13 19 7 10 1017.5 1017.5 0.0
25/09:30am 15.0 12.6 10.2 73 2.5 SSE 13 19 7 10 1017.5 1017.5 0.0
25/09:00am 14.7 12.7 10.1 74 2.4 S 11 15 6 8 1017.6 1017.6 0.0
25/08:30am 14.6 12.9 9.8 73 2.5 S 9 17 5 9 1017.6 1017.6 0.0
25/08:00am 14.1 12.9 9.6 74 2.3 SW 6 7 3 4 1017.6 1017.6 0.0
25/07:30am 13.8 12.6 10.2 79 1.9 SW 7 9 4 5 1017.6 1017.6 0.0
25/07:00am 13.5 12.4 10.6 82 1.5 SSE 7 7 4 4 1017.1 1017.1 0.0
25/06:30am 13.1 13.5 11.4 89 0.9 CALM 0 4 0 2 1017.1 1017.1 0.0
25/06:09am 13.0 12.3 11.3 89 0.9 S 6 9 3 5 1017.0 1017.0 0.0
25/06:00am 13.0 12.0 11.1 88 1.0 SSW 7 9 4 5 1016.9 1016.9 0.0
25/05:30am 12.8 11.7 11.9 94 0.5 SSW 9 13 5 7 1016.8 1016.8 0.0
25/05:00am 12.9 12.2 12.0 94 0.5 SSW 7 9 4 5 1016.7 1016.7 0.0
25/04:30am 13.0 11.9 11.9 93 0.6 S 9 11 5 6 1016.5 1016.5 0.0
25/04:00am 13.0 11.5 11.9 93 0.6 S 11 13 6 7 1016.4 1016.4 0.0
25/03:30am 13.0 11.6 12.3 95 0.4 S 11 13 6 7 1016.5 1016.5 0.0
25/03:00am 13.2 11.9 12.5 95 0.4 SSW 11 15 6 8 1016.4 1016.4 0.0
25/02:30am 13.3 12.1 12.9 97 0.2 S 11 13 6 7 1016.5 1016.5 0.0
25/02:00am 13.4 11.1 13.0 97 0.2 S 17 20 9 11 1016.6 1016.6 0.0
25/01:30am 14.6 13.0 12.8 89 1.0 S 13 19 7 10 1016.6 1016.6 0.0
25/01:00am 15.1 13.4 12.6 85 1.4 S 13 15 7 8 1016.6 1016.6 0.0
25/12:30am 15.2 14.7 12.7 85 1.4 SE 7 13 4 7 1016.5 1016.5 0.0
25/12:00am 15.1 13.9 12.7 85 1.3 SSE 11 15 6 8 1016.6 1016.6 0.0
 
Date/Time
EDT
Temp
°C
App
Temp
°C
Dew
Point
Rel
Hum
%
Delta-T
°C
Wind Press
QNH
hPa
Press
MSL
hPa
Rain
since 9 am
mm
Dir
 
Spd
km/h
Gust
km/h
Spd
kts
Gust
kts
24/11:30pm 15.1 13.5 12.7 85 1.3 SE 13 17 7 9 1016.6 1016.6 0.0
24/11:00pm 15.0 13.0 12.8 87 1.2 SSE 15 20 8 11 1016.6 1016.6 0.0
24/10:30pm 14.8 12.8 12.8 88 1.1 S 15 20 8 11 1016.4 1016.4 0.0
24/10:00pm 15.3 13.0 13.0 86 1.3 S 17 20 9 11 1016.0 1016.0 0.0
24/09:30pm 15.4 13.2 13.3 87 1.2 S 17 24 9 13 1015.5 1015.5 0.0
24/09:00pm 15.2 12.7 14.0 92 0.7 S 20 26 11 14 1014.9 1014.9 0.0
24/08:44pm 15.3 11.7 14.1 92 0.7 S 26 33 14 18 1014.5 1014.5 0.0
24/08:30pm 15.8 11.8 14.2 90 0.9 S 28 33 15 18 1014.0 1014.0 0.0
24/08:00pm 17.7 15.6 13.7 77 2.3 S 17 22 9 12 1013.0 1012.9 0.0
24/07:30pm 20.1 17.4 13.5 66 3.8 SSE 20 26 11 14 1012.2 1012.1 0.0
24/07:00pm 22.9 20.0 12.4 51 6.0 S 19 26 10 14 1011.7 1011.6 0.0
24/06:30pm 26.0 22.4 10.5 37 8.7 S 20 26 11 14 1010.7 1010.6 0.0
24/06:00pm 30.5 24.2 1.3 15 14.4 W 24 32 13 17 1010.2 1010.1 0.0
24/05:30pm 30.7 25.3 2.2 16 14.3 W 20 32 11 17 1010.2 1010.1 0.0
24/05:00pm 30.6 23.8 0.7 14 14.6 W 26 35 14 19 1010.1 1010.0 0.0
24/04:30pm 30.9 24.6 1.5 15 14.6 W 24 33 13 18 1010.0 1009.9 0.0
24/04:00pm 30.7 23.4 0.1 14 14.8 W 28 37 15 20 1010.3 1010.2 0.0
24/03:30pm 30.7 24.4 1.4 15 14.5 WSW 24 35 13 19 1010.4 1010.3 0.0
24/03:00pm 30.2 25.2 6.6 22 12.7 NNW 22 28 12 15 1010.4 1010.3 0.0
24/02:30pm 30.9 24.9 5.4 20 13.5 W 26 33 14 18 1010.7 1010.6 0.0
24/02:00pm 29.7 26.7 10.7 30 10.9 WNW 17 26 9 14 1010.7 1010.6 0.0
24/01:30pm 29.7 26.8 12.9 35 10.0 W 20 26 11 14 1010.7 1010.6 0.0
24/01:00pm 28.3 25.5 12.7 38 9.2 WSW 19 24 10 13 1011.0 1010.9 0.0
24/12:30pm 28.8 25.8 12.5 36 9.6 WSW 20 37 11 20 1011.1 1011.0 0.0
24/12:00pm 27.7 25.6 12.3 38 9.0 SSW 15 30 8 16 1011.4 1011.3 0.0
24/11:30am 27.9 24.8 12.1 37 9.2 N 20 32 11 17 1011.6 1011.5 0.0
24/11:00am 27.2 22.9 12.0 38 8.8 N 26 35 14 19 1011.4 1011.3 0.0
24/10:30am 25.9 20.9 11.1 39 8.4 N 28 35 15 19 1011.6 1011.5 0.0
24/10:00am 25.0 19.1 11.0 41 7.9 N 33 39 18 21 1011.8 1011.7 0.0
24/09:49am 24.9 19.9 10.9 41 7.9 N 28 46 15 25 1011.9 1011.8 0.0
24/09:30am 23.7 22.0 12.4 49 6.5 E 13 30 7 16 1011.8 1011.7 0.0
24/09:00am 18.4 17.9 13.7 74 2.7 NNE 9 17 5 9 1011.9 1011.8 0.0
24/08:51am 17.0 17.0 13.7 81 1.9 NNE 6 11 3 6 1012.2 1012.1 0.0
24/08:30am 14.9 14.7 13.5 91 0.8 N 7 11 4 6 1012.4 1012.3 0.0
24/08:00am 13.8 13.1 13.1 96 0.4 NNE 9 13 5 7 1012.6 1012.5 0.0
24/07:30am 13.2 12.7 12.8 97 0.2 NNE 7 9 4 5 1012.7 1012.6 0.0
24/07:00am 13.3 12.5 12.9 97 0.2 NE 9 11 5 6 1012.7 1012.6 0.0
24/06:30am 13.4 12.6 13.0 97 0.2 N 9 13 5 7 1012.5 1012.4 0.0
24/06:17am 13.7 13.0 13.2 97 0.3 N 9 13 5 7 1012.5 1012.4 0.0
24/06:00am 14.0 13.3 13.3 96 0.4 N 9 11 5 6 1012.4 1012.3 0.0
24/05:30am 14.2 13.9 13.3 94 0.5 NNW 7 11 4 6 1012.8 1012.7 0.0
24/05:00am 14.5 14.2 13.4 93 0.6 NW 7 9 4 5 1012.7 1012.6 0.0
24/04:30am 14.4 13.7 13.3 93 0.6 WNW 9 13 5 7 1012.8 1012.7 0.0
24/04:00am 14.5 13.8 13.2 92 0.7 WNW 9 11 5 6 1012.7 1012.6 0.0
24/03:30am 14.6 13.9 13.3 92 0.7 W 9 11 5 6 1013.1 1013.0 0.0
24/03:00am 14.6 13.9 13.3 92 0.7 W 9 11 5 6 1013.2 1013.1 0.0
24/02:30am 14.5 14.2 13.2 92 0.7 W 7 9 4 5 1013.5 1013.4 0.0
24/02:00am 14.3 13.2 13.2 93 0.6 W 11 15 6 8 1013.9 1013.9 0.0
24/01:30am 14.3 12.5 13.2 93 0.6 W 15 19 8 10 1014.3 1014.3 0.0
24/01:00am 14.3 12.8 13.2 93 0.6 W 13 19 7 10 1014.7 1014.7 0.0
24/12:30am 14.5 12.2 13.1 91 0.8 W 17 24 9 13 1014.8 1014.8 0.0
24/12:00am 14.7 12.1 13.3 91 0.8 W 19 26 10 14 1015.2 1015.2 0.0
 
Date/Time
EDT
Temp
°C
App
Temp
°C
Dew
Point
Rel
Hum
%
Delta-T
°C
Wind Press
QNH
hPa
Press
MSL
hPa
Rain
since 9 am
mm
Dir
 
Spd
km/h
Gust
km/h
Spd
kts
Gust
kts
23/11:30pm 14.9 12.1 13.3 90 0.9 W 20 28 11 15 1015.5 1015.5 0.0
23/11:00pm 14.9 12.7 13.3 90 0.9 W 17 28 9 15 1015.6 1015.6 0.0
23/10:47pm 14.6 12.4 13.3 92 0.7 W 17 20 9 11 1015.7 1015.7 0.0
23/10:30pm 13.9 12.0 13.0 94 0.5 W 15 19 8 10 1015.8 1015.8 0.0
23/10:00pm 14.1 12.2 13.0 93 0.6 W 15 19 8 10 1015.8 1015.8 0.0
23/09:30pm 14.5 12.6 13.1 91 0.8 W 15 20 8 11 1015.7 1015.7 0.0
23/09:00pm 14.8 12.6 13.2 90 0.9 W 17 20 9 11 1015.5 1015.5 0.0
23/08:30pm 15.7 14.0 13.6 87 1.2 W 15 19 8 10 1015.3 1015.3 0.0
23/08:00pm 16.2 14.5 13.5 84 1.5 W 15 19 8 10 1015.2 1015.2 0.0
23/07:30pm 17.8 16.6 14.0 78 2.2 WSW 13 17 7 9 1015.3 1015.3 0.0
23/07:00pm 18.8 16.8 13.9 73 2.8 SW 17 19 9 10 1015.4 1015.4 0.0
23/06:30pm 19.0 16.6 13.8 72 3.0 SSW 19 22 10 12 1015.4 1015.4 0.0
23/06:00pm 19.1 16.5 13.7 71 3.1 SSW 20 30 11 16 1015.7 1015.7 0.0
23/05:30pm 18.9 16.4 13.5 71 3.1 SSW 19 24 10 13 1015.8 1015.8 0.0
23/05:00pm 19.1 16.4 12.9 67 3.5 S 19 28 10 15 1016.0 1016.0 0.0
23/04:30pm 19.4 17.1 12.9 66 3.7 SSW 17 35 9 19 1016.3 1016.3 0.0
23/04:00pm 19.1 17.5 12.7 66 3.6 SSW 13 19 7 10 1016.5 1016.5 0.0
23/03:30pm 18.5 17.2 12.4 67 3.4 S 11 19 6 10 1017.0 1017.0 0.0
23/03:00pm 18.0 16.3 12.4 70 3.1 SSE 13 17 7 9 1017.3 1017.3 0.0
23/02:30pm 17.1 14.9 12.2 73 2.7 S 15 20 8 11 1017.8 1017.8 0.0
23/02:00pm 16.8 14.6 12.1 74 2.6 S 15 22 8 12 1018.4 1018.3 0.0
23/01:30pm 16.5 14.4 12.3 76 2.3 S 15 19 8 10 1018.6 1018.5 0.0
23/01:00pm 16.1 14.4 12.3 78 2.1 S 13 17 7 9 1019.0 1018.9 0.0
23/12:30pm 15.4 13.3 12.3 82 1.7 S 15 22 8 12 1019.3 1019.2 0.0
23/12:00pm 15.5 13.4 12.4 82 1.7 S 15 20 8 11 1019.5 1019.4 0.0
23/11:30am 15.1 13.4 12.4 84 1.5 S 13 19 7 10 1019.9 1019.8 0.0
23/11:00am 15.1 13.4 12.4 84 1.5 S 13 17 7 9 1020.2 1020.1 0.0
23/10:30am 15.3 13.8 12.0 81 1.8 SSW 11 17 6 9 1020.5 1020.4 0.0
23/10:00am 14.9 13.0 11.8 82 1.7 SSW 13 17 7 9 1020.4 1020.3 0.0
23/09:30am 14.6 12.3 11.8 83 1.5 S 15 19 8 10 1020.6 1020.5 0.0
23/09:00am 14.5 12.8 12.5 88 1.1 S 13 17 7 9 1020.7 1020.7 0.0
23/08:30am 14.1 11.7 12.6 91 0.8 S 17 24 9 13 1020.7 1020.7 0.0
23/08:00am 14.4 12.2 12.2 87 1.2 S 15 17 8 9 1020.4 1020.3 0.0
23/07:30am 14.3 12.2 12.3 88 1.1 SSW 15 19 8 10 1020.2 1020.1 0.0
23/07:00am 14.3 13.3 12.3 88 1.1 SSW 9 13 5 7 1019.9 1019.8 0.0
23/06:30am 14.2 12.5 12.4 89 1.0 S 13 15 7 8 1019.7 1019.6 0.0
23/06:00am 13.8 13.1 13.3 97 0.3 SW 9 9 5 5 1019.5 1019.4 0.0
23/05:30am 13.8 12.7 13.1 96 0.4 WSW 11 13 6 7 1019.1 1019.0 0.0
23/05:00am 13.7 12.2 13.0 96 0.4 SW 13 15 7 8 1018.8 1018.7 0.0
23/04:30am 13.9 11.9 12.8 93 0.6 SW 15 19 8 10 1018.8 1018.7 0.0
23/04:00am 14.3 12.6 12.5 89 1.0 SW 13 17 7 9 1018.7 1018.6 0.0
23/03:30am 14.3 12.3 12.7 90 0.9 SW 15 19 8 10 1018.9 1018.8 0.0
23/03:00am 14.5 12.9 12.7 89 1.0 SSW 13 17 7 9 1019.2 1019.1 0.0
23/02:30am 14.7 13.1 12.9 89 1.0 S 13 17 7 9 1019.5 1019.4 0.0
23/02:00am 15.0 13.1 13.0 88 1.1 SSW 15 22 8 12 1019.4 1019.3 0.0
23/01:30am 14.8 14.4 13.0 89 1.0 S 7 9 4 5 1019.5 1019.4 0.0
23/01:00am 14.7 13.9 12.9 89 1.0 S 9 11 5 6 1019.5 1019.4 0.0
23/12:49am 14.7 13.5 12.9 89 1.0 S 11 13 6 7 1019.4 1019.3 0.0
23/12:30am 14.9 13.0 12.9 88 1.1 SSE 15 19 8 10 1019.3 1019.2 0.0
23/12:19am 14.9 12.6 13.1 89 1.0 SSE 17 19 9 10 1019.3 1019.2 0.0
23/12:00am 15.0 13.0 12.8 87 1.2 S 15 20 8 11 1019.1 1019.0 0.0
 
Date/Time
EDT
Temp
°C
App
Temp
°C
Dew
Point
Rel
Hum
%
Delta-T
°C
Wind Press
QNH
hPa
Press
MSL
hPa
Rain
since 9 am
mm
Dir
 
Spd
km/h
Gust
km/h
Spd
kts
Gust
kts
22/11:30pm 15.0 14.5 12.8 87 1.2 S 7 11 4 6 1018.8 1018.7 0.0
22/11:00pm 15.7 12.4 12.8 83 1.6 S 22 30 12 16 1018.7 1018.6 0.0
22/10:30pm 17.3 13.7 12.0 71 2.9 S 22 28 12 15 1018.5 1018.4 0.0
22/10:00pm 18.9 16.9 11.4 61 4.1 SW 13 17 7 9 1018.8 1018.7 0.0
22/09:30pm 20.3 17.5 11.2 56 5.0 WSW 17 20 9 11 1018.4 1018.3 0.0
22/09:00pm 22.2 18.7 11.0 49 6.2 WSW 20 32 11 17 1018.2 1018.1 0.0
22/08:30pm 23.5 20.1 11.2 46 6.9 WSW 20 26 11 14 1016.7 1016.7 0.0
22/08:00pm 26.4 23.3 10.4 36 9.0 N 17 19 9 10 1015.6 1015.6 0.0
22/07:30pm 26.1 23.7 11.4 39 8.4 N 15 19 8 10 1015.2 1015.2 0.0
22/07:00pm 27.8 24.1 10.3 33 9.9 N 20 28 11 15 1014.7 1014.7 0.0
22/06:30pm 28.9 24.4 10.2 31 10.6 N 24 32 13 17 1014.5 1014.5 0.0
22/06:00pm 28.6 23.3 10.0 31 10.5 N 28 37 15 20 1014.7 1014.7 0.0
22/05:30pm 30.3 24.0 9.6 27 11.7 N 33 43 18 23 1014.7 1014.7 0.0
22/05:00pm 30.6 23.4 9.3 26 12.0 N 37 44 20 24 1014.9 1014.9 0.0
22/04:30pm 29.5 22.9 10.1 30 11.0 N 35 43 19 23 1015.0 1015.0 0.0
22/04:00pm 29.0 22.4 10.1 30 10.7 N 35 43 19 23 1015.2 1015.2 0.0
22/03:30pm 28.8 22.1 9.5 30 10.8 N 35 44 19 24 1015.5 1015.5 0.0
22/03:00pm 30.6 24.3 9.8 27 11.8 N 33 41 18 22 1015.7 1015.7 0.0
22/02:30pm 30.3 23.8 10.4 29 11.4 N 35 44 19 24 1016.1 1016.1 0.0
22/02:00pm 29.9 23.4 10.2 29 11.2 N 35 43 19 23 1016.5 1016.5 0.0

Other Formats:

Comma delimited format used in spreadsheet applications
http://www.bom.gov.au/fwo/IDV60801/IDV60801.94866.axf

JavaScript Object Notation format (JSON) in row-major order
http://www.bom.gov.au/fwo/IDV60801/IDV60801.94866.json